DELTA 1 DEB, 26837

Orbit data source: Space-Track

DELTA 1 DEB, 26837 is space debris in SSO originally from a launch on Thu, 12 Jun 1975 UTC launched from the Air Force Western Test Range (AFWTR). Debris objects in space refer to the collection of defunct objects orbiting the Earth. Examples of debris include non-operational satellites, rocket bodies, and fragments generated from explosions, collisions, or faulty payload assembly.

Loading next visibility...
Identifier
26837, 1975-052KR
Orbit
SSO
Country
Flag of USUS
Related business
Manufacturer
Unknown
Mission
Spacecraft
Bus & Motor
Unknown
Mass
Unknown
Launch date (UTC)
1975-06-12 (51 years ago)
Launch vehicle
Unknown
Launch site
Air Force Western Test Range (AFWTR)
Object type
Payload
Rocket body
Debris
Shape & HBR
Unknown shape, 0.1 m
Radar Cross Section
Medium (>0.1 m² and <1 m²)

Expand to show TLE details & history
Last TLE update: 2 days ago

TLE from 2 days ago
0 DELTA 1 DEB
1 26837U 75052KR  26170.98587726  .00000477  00000-0  13062-2 0  9995
2 26837  99.6905 347.0771 0281525 239.5525 275.9784 13.05741742252060
Epoch: 2026-06-19T23:39Z
TLE epoch observation values (Epoch: 2026-06-19T23:39:39.795Z)
Latitude
27.29775°
Longitude
-91.01534°
Altitude
1,226.513 km
Speed
7.251 km/s
True Right ascension
11h 28m 25s
True Declination
27° 09' 59"
Sunlit
Object was in daylight at epoch
Visualization orbit readout
Latitude
Unknown
Longitude
Unknown
Altitude
Unknown
Speed
Unknown
Apparent Right ascension
Unknown
Apparent Declination
Unknown
Sunlit
N/A
Visualization observer readout
Local Sidereal Time
12:52:09
Azimuth
Unknown
Elevation
Unknown
Doppler factor
Unknown
Orbital elements
Apogee altitude
1,451.419 km
Perigee altitude
1,022.647 km
Semi-major axis
7,615.17 km
Eccentricity
0.02815
Inclination
99.6905°
RAAN
347.0771°
Arg. of periapsis
239.5525°
True anomaly
272.7598°
Mean anomaly
275.9784°
Eccentric anomaly
274.37007°
Mean motion
3.26606 °/min
Orbital period
110.22 mins
BSTAR
0.0013062
Loading maneuver chart data...
Computing Atmospheric mass density...

Documentation

Showing up to 5 results
|